HUANJING 1A (HJ-1A)

Last updated on Sat Aug 15 2026 00:02:45 GMT+0000 (Coordinated Universal Time)

1 33320U 08041A 26226.62336287 -.00000199 00000+0 -17574-4 0 9997 2 33320 97.6727 210.2214 0017844 310.6247 49.3415 14.84105366967073
UTC large
Height (km)
Speed (km/s)
/
Latitude / Longitude
Inclination (degrees)
Orbital Period (minutes)
Azimuth
Elevation
Range (km)
Doppler Factor

Next 0 passes for location: London (51.5072 / 0.1276)

No passes found over London.
HUANJING 1A (HJ-1A)